Member area
Imprimable
Wissant, 08-09/09/2018, FRA - Trail de la Côte d'Opale
List of reports > 21km - Results
Search: Page: [1]
150 Entries
 
Complains are not accepted anymore. Results are final.
PlaceNrLicenceNameAgeNATTeamTimeTkmMoy.ScrCity
1.4469FVANBERGUE Maureen42FRA1:53:275:25 11.1185
2.4773FBLARY Karine43FRAS/L ACVILLENEUVE D ASCQ2:02:035:49 10.32168
3.4251FPETIT Caroline43FRA2:02:535:52 10.25176
4.4302FDELMARRE Helene44FRA2:03:325:53 10.20185
5.50281895071FTALLEUX Céline40FRAEMA622:03:385:54 10.19187
6.4344FOLIVIER Anne Sophie45FRA2:04:265:56 10.13195
7.50831842295FFRANCOIS Sophie43FRARCA2:04:445:57 10.10198
8.4948FMOGUET Cécile41FRA2:05:456:00 10.02215
9.47741972360FDELECROIX Blandine43FRAS/L AC VILLENEUVE D'ASCQ2:05:496:00 10.01217
10.4638FHEBERT Alexandra42FRA2:06:066:01 9.99222
11.5201FBEHAGUE Delphine40FRARABOT DUTILLEUL2:07:366:05 9.87251
12.5009FBEYRA-VANNESTE Ana-Luisa46FRATHIERRY2:09:136:10 9.75269
13.4971FDEGBOMONT Caroline46BELILOVERUNNINGLIEGE2:09:166:10 9.75272
14.41951958641FDUVAUCHEL Virginie43FRAAVIRON BAYONNAIS TRAIL2:10:316:13 9.65281
15.4682FCARTON Stephanie43FRA2:10:346:14 9.65285
16.5236FANICOT Karine45FRA2:10:446:14 9.64286
17.5067FVASSAL Sophie45FRA2:10:516:14 9.63289
18.4269FBORMS Nathalie49BEL2:12:026:18 9.54309
19.5053FELLIOT Allyson40FRAUNIRUN2:12:156:18 9.53318
20.4345FSERGENT Hélène43FRA2:12:256:19 9.52326
21.43792033151FMARTY Valerie44FRAS/L MARQUISE2:12:556:20 9.48332
22.4985FCERISIER Delphine40BELGROUPE GOBERT RUNNING TEA2:13:136:21 9.46338
23.5170FVANDERGHOTE Chantal43BELMIDLON2:13:286:22 9.44342
24.4504FBRIQUEMONT Patricia49BEL2:13:516:23 9.41353
25.4730FCZABAN Nathalie42FRALES CZAB'S2:16:596:32 9.20410
26.47261843272FCHUDY Aline47FRAJAF FRETIN2:17:146:33 9.18414
27.4729FHU Sylvine41FRA2:17:446:34 9.15422
28.4671FDE SAINTIGNON Muriel45FRA2:18:316:36 9.10429
29.4491FHARAKE Farah42FRA2:18:416:37 9.09436
30.4772FCOUVREUR Sandrine43FRA2:18:476:37 9.08439
31.4576FSOYER Marie40FRA2:18:536:37 9.07441
32.4937FDION Sophie43FRAHEM ATHLETIC CLUB2:18:576:37 9.07445
33.4436FDEMISELLE Valérie44FRAFABTEAM2:19:436:40 9.02465
34.4383FMESTACK Laurence47FRARUNCROIX592:19:466:40 9.02467
35.44061475417FJACOB Anne48FRAUSD2:19:466:40 9.02468
36.4944FOBLED Lucile49FRA2:20:186:41 8.98475
37.4434FCOEUR Cécile48FRAWRC WIMEREUX2:21:086:44 8.93495
38.4734FLEPAPE Véronique41BEL2:21:216:44 8.91497
39.4881FPICART Hélène45FRA2:22:136:47 8.86510
40.4692FVAN RUMST Marijke48BEL2:23:136:50 8.80529
41.4362FREVAUX Sophie48FRAGRAVITY RUNNING EXPERIENC2:23:426:51 8.77534
42.5220FGROUX Audrey40FRA2:24:086:52 8.74539
43.3426FVAN INGHELANDT Rachel40FRA2:24:476:54 8.70559
44.4779FGAILLARD Stéphanie44FRAOXYGÈNE FITNESS2:24:536:54 8.70563
45.4746FBELLET Catherine42FRA2:25:446:57 8.65576
46.4271FBELLET Aurélie40FRA2:25:476:57 8.64579
47.4816FJUSTIN Sandrine43FRA2:26:006:58 8.63586
48.4008FCATEZ Leane40FRA2:26:016:58 8.63587
49.4012FBOISSERIE Pénélope46FRABLANC NEZ TRIATHLON622:26:106:58 8.62589
50.4316FCARRE Caroline45FRA2:27:347:02 8.54612
51.4956FBONIFACE Stephanie43FRAAS BLACOURT2:28:047:04 8.51618
52.4654FSOUFLET Valerie44FRA2:28:057:04 8.51620
53.4846FPALOMBA Stéphanie45FRALES COP'1 D'ABORD2:28:147:04 8.50624
54.4677FDEBARBIEUX Severine42FRALES CARTOONS2:28:247:04 8.49628
55.46781587984FFERNANDES Angélique48FRAS/L LE MANS A 722:28:337:05 8.48632
56.5149FFORTEMAISON Sandrine42BEL2:28:357:05 8.48633
57.4095FWATTEL Marie-Line46FRARUN FOR FUN2:28:397:05 8.48637
58.4202FPERETTE Gwenaelle46FRAPHILIPPIDÈS CLUB TEMPLEUV2:28:407:05 8.48638
59.4834FPAREYT Nathalie41FRAHELL RUNNERS2:28:487:06 8.47640
60.4901FKOCIJANCIC Maja48SLO2:29:057:06 8.45646
61.4519FTHIOU Nathalie44FRAWAC2:29:477:08 8.41660
62.4011FBERQUET Sandrine46FRA2:29:497:09 8.41662
63.4843FNOËL Christelle40BEL2:30:027:09 8.40664
64.4997FAERTS Saskia43BEL2:30:367:11 8.37672
65.4079FDUHAMEL Cécilia42FRA2:30:497:11 8.35676
66.42121884323FVANDEWYNCKEL Caroline44FRA2:30:507:11 8.35677
67.4783FBERGER Stephanie49FRA2:31:087:12 8.34682
68.4765FGIRARD Claire47FRA2:31:207:13 8.33685
68.4200FSEGARD Pauline42FRA2:31:207:13 8.33685
70.4183FSCAGNETTI Lucinda42FRAGRAVITY RUNNING EXPERIENC2:31:427:14 8.31690
71.5269FSENECHAL Delphine42FRA2:31:587:15 8.29692TOUFFLERS
72.4736FHUBERT Isabelle40BEL2:32:357:16 8.26697
73.40531936463FBOIS Valarie47FRASOC2:33:277:19 8.21716
74.4175FWIAME Anne41BELFAIREBEL2:33:357:19 8.20720
75.4180FMOTTE Céline47FRA2:33:537:20 8.19726
76.4795FPOUPLARD Stephanie41FRA2:33:597:20 8.18729
77.4989FCOUSIN Séverine47FRA2:34:147:21 8.17735
78.4371FNEDONCHELLE Rose40FRA2:34:247:22 8.16739
79.4464FCAUVEL Muriel48FRAACP BRETEUIL2:34:267:22 8.16740
80.4428FBONVALET Géraldine43FRAFRESNES RUN TEAM2:34:377:22 8.15743
81.4481FSAVET Isabelle41FRA2:36:367:28 8.05758
82.4290FGANNE Jocelyne42FRARUNCROIX592:36:457:28 8.04760
83.50542051875FCHARDIN Flavie45FRAASPTT CHÂLONS-EN-CHAMPAGN2:36:497:29 8.04769
84.4648FPUTMAN Aurelie40FRA2:38:047:32 7.97784
85.4312FFOUCART Marie-Sophie40BELLES GENS D'ERE2:38:077:32 7.97785
86.4763FBIHAN Solenn42FRA2:38:407:34 7.94795
87.2330FTHIÉBAUT Cindy42BELECLATÉS PÉRUWELZIENS2:39:057:35 7.92801
88.5231FDESTAILLEUR Peggy45FRA2:39:117:35 7.92804
89.4404FSYLVART Tamara46BELRUSTA2:39:137:35 7.91806
90.4511FWINDAL Magali40BELTORTUES MESLINOISES2:39:307:36 7.90810
91.5106FCOOL Delphine47BEL2:39:427:37 7.89812
92.4790FBOURSIER Anne-Laure45FRA2:41:247:42 7.81828
93.4407FBOURGAIN Sandrine47FRACAMB2:41:267:42 7.81830
94.4062FTAURINES Anne Sophie45FRA2:41:517:43 7.79843
95.4555FDELEAU Céline47FRA2:41:567:43 7.78844
96.4988FDEVRIESE Celine41FRA2:42:017:43 7.78846
97.4094FMARY Ninon46FRA2:42:227:44 7.76851
98.3077FDESPREZ Angelique45BEL2:43:027:46 7.73860
99.44781530644FDESAULTY Hélène42FRARC ARRAS2:43:297:48 7.71865
100.44761827614FLEROY Audrey40FRARC ARRAS2:43:367:48 7.70867
101.4333FMEHAY Angelique40FRAJOGG ACQ TEAM2:43:377:48 7.70869
102.4389FGRÉBAUX Sandrine44FRA2:43:437:48 7.70870
103.4711FJOANNES France43BELWAC (BELGIQUE)2:43:557:49 7.69874
104.4646FDEBRULLE Benedicte46BEL2:44:027:49 7.68876
105.4310FHESPEL Florence40BELLES GENS D'ERE2:44:167:50 7.67881
106.4817FCOLLIN Irene49FRA2:44:177:50 7.67883
107.4609FGAVEL Sylvia46FRA2:44:187:50 7.67884
108.4585FROCOUR Sandrine47BELRUNNING TEAM CONDROZ2:44:207:50 7.67885
109.4001FFARNWORTH Sylvie45FRAAC CAPELLOIS2:44:457:51 7.65891
110.4119FFAYT Helene44FRA2:45:037:52 7.63894
111.4102FBOUIN Stéphanie44FRA2:45:067:52 7.63896
112.4538FBLONDELLE Sophie48BELTORTUES MESLINOISES2:45:077:52 7.63897
113.4530FFLOERS DUROISIN Sandra45FRA2:47:297:59 7.52918
114.4224FDUSSART Veronique49FRAH2R (HERLIES RANDO RUN)2:48:138:01 7.49929
115.4744FTENRET Nadège42BELUAC2:48:148:01 7.49930
116.4528FDUPONT Carole43FRA2:48:208:01 7.49934
117.4016FALLART Frédérique45FRA2:49:218:04 7.44939
118.43551715209FGOSSE Gaetane49FRASERVINS AC2:49:488:06 7.42942
119.5016FABONNEAU Marie-Laure41FRACOURIR EN DUO2:49:598:06 7.41946
120.5122FPONTONNIER Peggy46FRA2:50:458:08 7.38958
121.4588FMARCHAIS Sophie44FRA2:50:578:09 7.37961
122.4329FNOIROT Virginie41FRA2:50:578:09 7.37962
123.4919FMOREL Estelle45FRA2:51:128:10 7.36963
124.4553FDUPONT Stéphanie45FRA2:51:368:11 7.34964
125.4284FSTUBBE Stephanie44FRA2:51:508:11 7.33968
126.4535B03343C0190133FV1FRAFSERRA Sophie42FRAVILLENEUVE D'ASCQ TRIATHL2:52:088:12 7.32969
127.5057FJOUVENAUX Xaveline45FRA2:52:428:14 7.30971
128.4681FBOEL Véronique45BELLEONIDAS2:53:028:15 7.28977
129.4457FDESAINS Isabelle45FRA2:53:538:17 7.25984
130.5030FCLAISSE Michele45FRA2:55:298:22 7.18991
131.44021926570FMASSET Anne43FRACOURIR DANS LE LUMBROIS2:58:108:30 7.071006
132.41031889841FLECLERCQ Stéphanie46FRACOURIR DANS LE LUMBROIS2:58:118:30 7.071007
133.46851914480FEVRARD Laetitia43FRACOURIR DANS LE LUMBROIS2:58:128:30 7.071008
134.5085FDE RIEMAECKER Ludovic45FRARABOT DUTILLEUL2:59:128:32 7.031015
135.4385FJAROSZ Helene45FRA3:01:048:38 6.961025
136.4384FROUSE Laetitia42FRA3:01:058:38 6.961026
137.4252FDUMOTIER-VANHELLE Anne-Sophie47FRA3:01:088:38 6.961027
138.4672FHALENG Frederique46BELAXA TEAM3:02:058:41 6.921030
139.4839FDUCLOY Stéphanie48FRA3:02:508:43 6.891033
140.4797FREMY Magali46FRA3:03:358:45 6.861039
141.4096FCLAISSE Karine43FRAGRAVITY3:04:178:47 6.841043
142.41161274356FSANGNIER Florence42FRAGRAVITY3:04:178:47 6.841044
143.5117FCALIMET Judith46FRA3:07:258:56 6.721055
144.4228FGRADZIK Estelle41FRA3:09:149:01 6.661059
145.4136FCREUSOT Cécile46FRACÉCILE3:09:149:01 6.661060
146.4645FPUFFET Christelle44BEL3:23:379:42 6.191070
DNF41532018975FBOUDIN Alice43FRATHIAIS AC
DNF4256FFOURNIER Catherine49FRAH2R
DNF4412FKEMPER Caroline47FRAFORTIUS
DNF4014FVALLÉE Karine46FRA
DNF: did not finish; DSQ: disqualified; Speed in km/h
Page: [1]